Litchfield, MN

9:07 PM CDT on September 23, 2017 (GMT -0500)
Litchfield Municipal

Weather History for KLJF - April, 2014

Change the Weather History Date:

Sunday, April 13, 2014

  Actual Average Record
Temperature  
Mean Temperature 37 °F -  
Max Temperature 42 °F 54 °F 82 °F (2003)
Min Temperature 32 °F 33 °F 13 °F (1950)
Degree Days  
Heating Degree Days 28    
Moisture  
Dew Point 31 °F    
Average Humidity 75    
Maximum Humidity 93    
Minimum Humidity 56    
Precipitation  
Precipitation 0.00 in - - ()
Sea Level Pressure  
Sea Level Pressure 29.89 in    
Wind  
Wind Speed 11 mph (North)    
Max Wind Speed 25 mph    
Max Gust Speed 32 mph    
Visibility 10 miles    
Events      
Averages and records for this station are not official NWS values.
T = Trace of Precipitation, MM = Missing Value Source: NWS Daily Summary

Daily Weather History Graph

Daily Weather History Graph

Search for Another Location

Airport or City:

Trip Planner

Search our weather history database for the weather conditions in past years. The results will help you decide how hot, cold, wet, or windy it might be!

Date:

Astronomy

Apr. 13, 2014 Rise Set
Actual Time 6:36 AM CDT 8:01 PM CDT
Civil Twilight 6:06 AM CDT 8:31 PM CDT
Nautical Twilight 5:29 AM CDT 9:08 PM CDT
Astronomical Twilight 4:50 AM CDT 9:48 PM CDT
Moon 6:36 PM CDT (4/13) 5:40 AM CDT (4/13)
Length of Visible Light 14h 25m
Length of Day
13h 24m
Waxing Gibbous, 97% of the Moon is Illuminated
Apr 13
Waxing Gibbous
Apr 15
Full
Apr 22
Last Quarter
Apr 29
New
May 6
First Quarter

Hourly Weather History & Observations

Time (CDT) Temp. Windchill Dew Point Humidity Pressure Visibility Wind Dir Wind Speed Gust Speed Precip Events Conditions
12:13 AM 42.8 °F 38.6 °F 41.0 °F 93% 29.75 in 10.0 mi NE 6.9 mph - N/A   Overcast
12:33 AM 42.8 °F 39.3 °F 41.0 °F 93% 29.77 in 10.0 mi NE 5.8 mph - N/A   Overcast
12:53 AM 42.8 °F 41.1 °F 41.0 °F 93% 29.78 in 10.0 mi NE 3.5 mph - N/A   Overcast
1:13 AM 42.8 °F 39.3 °F 41.0 °F 93% 29.79 in 10.0 mi NNE 5.8 mph - N/A   Overcast
1:33 AM 42.8 °F 39.3 °F 41.0 °F 93% 29.80 in 10.0 mi NNE 5.8 mph - N/A   Overcast
1:53 AM 42.8 °F 40.1 °F 41.0 °F 93% 29.80 in 10.0 mi NNE 4.6 mph - N/A   Overcast
2:13 AM 42.8 °F 40.1 °F 39.2 °F 87% 29.81 in 10.0 mi NNE 4.6 mph - N/A   Overcast
2:33 AM 42.8 °F 40.1 °F 39.2 °F 87% 29.80 in 10.0 mi NNE 4.6 mph - N/A   Overcast
2:52 AM 42.8 °F 41.1 °F 39.2 °F 87% 29.82 in 10.0 mi North 3.5 mph - N/A   Overcast
3:13 AM 42.8 °F 41.1 °F 39.2 °F 87% 29.83 in 10.0 mi North 3.5 mph - N/A   Overcast
3:32 AM 42.8 °F 39.3 °F 41.0 °F 93% 29.83 in 10.0 mi NNW 5.8 mph - N/A   Overcast
3:53 AM 42.8 °F 39.3 °F 39.2 °F 87% 29.83 in 10.0 mi North 5.8 mph - N/A   Overcast
4:13 AM 42.8 °F 38.0 °F 41.0 °F 93% 29.83 in 10.0 mi NNW 8.1 mph - N/A   Overcast
4:32 AM 42.8 °F 39.3 °F 39.2 °F 87% 29.83 in 10.0 mi North 5.8 mph - N/A   Overcast
4:53 AM 42.8 °F 37.0 °F 41.0 °F 93% 29.84 in 10.0 mi NNW 10.4 mph - N/A   Overcast
5:13 AM 42.8 °F 37.5 °F 39.2 °F 87% 29.84 in 10.0 mi NNW 9.2 mph - N/A   Overcast
5:32 AM 42.8 °F 37.5 °F 39.2 °F 87% 29.85 in 10.0 mi NW 9.2 mph - N/A   Overcast
5:53 AM 42.8 °F 38.6 °F 39.2 °F 87% 29.85 in 10.0 mi NNW 6.9 mph - N/A   Overcast
6:13 AM 42.8 °F 37.5 °F 39.2 °F 87% 29.85 in 10.0 mi NW 9.2 mph - N/A   Overcast
6:32 AM 42.8 °F 36.6 °F 39.2 °F 87% 29.85 in 10.0 mi NNW 11.5 mph - N/A   Overcast
6:53 AM 42.8 °F 36.2 °F 41.0 °F 93% 29.85 in 10.0 mi NNW 12.7 mph - N/A   Overcast
7:13 AM 39.2 °F 31.6 °F 37.4 °F 93% 29.87 in 10.0 mi NW 12.7 mph 20.7 mph N/A   Overcast
7:32 AM 37.4 °F 28.9 °F 35.6 °F 93% 29.89 in 10.0 mi NW 13.8 mph 21.9 mph N/A   Overcast
7:53 AM 37.4 °F 29.8 °F 35.6 °F 93% 29.89 in 10.0 mi NW 11.5 mph - N/A   Overcast
8:13 AM 37.4 °F 29.3 °F 35.6 °F 93% 29.91 in 10.0 mi NW 12.7 mph - N/A   Overcast
8:32 AM 35.6 °F 26.2 °F 33.8 °F 93% 29.91 in 10.0 mi NW 15.0 mph 20.7 mph N/A   Overcast
8:53 AM 35.6 °F 25.9 °F 33.8 °F 93% 29.91 in 10.0 mi NNW 16.1 mph 21.9 mph N/A   Overcast
9:13 AM 35.6 °F 24.5 °F 33.8 °F 93% 29.90 in 10.0 mi NNW 20.7 mph 24.2 mph N/A   Overcast
9:32 AM 35.6 °F 24.8 °F 33.8 °F 93% 29.90 in 10.0 mi NNW 19.6 mph - N/A   Overcast
9:53 AM 35.6 °F 24.2 °F 33.8 °F 93% 29.89 in 10.0 mi NNW 21.9 mph 27.6 mph N/A   Overcast
10:32 AM 35.6 °F 23.7 °F 33.8 °F 93% 29.88 in 10.0 mi North 24.2 mph 27.6 mph N/A   Overcast
10:53 AM 35.6 °F 23.4 °F 32.0 °F 87% 29.88 in 10.0 mi NNW 25.3 mph 31.1 mph N/A   Overcast
11:13 AM 37.4 °F 26.4 °F 30.2 °F 75% 29.88 in 10.0 mi NNW 23.0 mph 31.1 mph N/A   Overcast
11:32 AM 37.4 °F 25.9 °F 30.2 °F 75% 29.88 in 10.0 mi NNW 25.3 mph 32.2 mph N/A   Overcast
11:53 AM 37.4 °F 26.4 °F 30.2 °F 75% 29.89 in 10.0 mi NNW 23.0 mph 32.2 mph N/A   Overcast
12:13 PM 35.6 °F 26.2 °F 30.2 °F 81% 29.94 in 10.0 mi North 15.0 mph 27.6 mph N/A   Overcast
12:33 PM 35.6 °F 27.1 °F 30.2 °F 81% 29.96 in 10.0 mi North 12.7 mph - N/A   Overcast
12:53 PM 37.4 °F 28.5 °F 30.2 °F 75% 29.95 in 10.0 mi North 15.0 mph - N/A   Overcast
1:12 PM 37.4 °F 28.9 °F 30.2 °F 75% 29.94 in 10.0 mi North 13.8 mph - N/A   Overcast
1:33 PM 37.4 °F 27.5 °F 28.4 °F 70% 29.93 in 10.0 mi North 18.4 mph 23.0 mph N/A   Overcast
1:53 PM 39.2 °F 30.2 °F 28.4 °F 65% 29.93 in 10.0 mi NNW 17.3 mph 24.2 mph N/A   Mostly Cloudy
2:12 PM 39.2 °F 30.2 °F 28.4 °F 65% 29.93 in 10.0 mi North 17.3 mph 26.5 mph N/A   Mostly Cloudy
2:33 PM 39.2 °F 31.2 °F 28.4 °F 65% 29.92 in 10.0 mi North 13.8 mph 21.9 mph N/A   Scattered Clouds
2:53 PM 39.2 °F 30.5 °F 28.4 °F 65% 29.92 in 10.0 mi North 16.1 mph 24.2 mph N/A   Mostly Cloudy
3:12 PM 39.2 °F 29.6 °F 28.4 °F 65% 29.91 in 10.0 mi North 19.6 mph 24.2 mph N/A   Scattered Clouds
3:33 PM 41.0 °F 32.2 °F 26.6 °F 57% 29.90 in 10.0 mi North 18.4 mph 23.0 mph N/A   Scattered Clouds
3:53 PM 41.0 °F 32.5 °F 28.4 °F 61% 29.90 in 10.0 mi North 17.3 mph 23.0 mph N/A   Scattered Clouds
4:12 PM 41.0 °F 32.2 °F 26.6 °F 57% 29.90 in 10.0 mi North 18.4 mph 23.0 mph N/A   Mostly Cloudy
4:33 PM 41.0 °F 32.5 °F 26.6 °F 57% 29.90 in 10.0 mi North 17.3 mph 24.2 mph N/A   Mostly Cloudy
4:53 PM 41.0 °F 33.1 °F 26.6 °F 57% 29.90 in 10.0 mi North 15.0 mph 19.6 mph N/A   Mostly Cloudy
5:12 PM 41.0 °F 33.5 °F 26.6 °F 57% 29.90 in 10.0 mi NNE 13.8 mph 19.6 mph N/A   Overcast
5:33 PM 41.0 °F 32.2 °F 26.6 °F 57% 29.90 in 10.0 mi North 18.4 mph 24.2 mph N/A   Overcast
5:53 PM 39.2 °F 30.2 °F 24.8 °F 56% 29.91 in 10.0 mi NNE 17.3 mph 23.0 mph N/A   Scattered Clouds
6:12 PM 39.2 °F 30.2 °F 24.8 °F 56% 29.92 in 10.0 mi North 17.3 mph 25.3 mph N/A   Clear
6:33 PM 39.2 °F 30.8 °F 24.8 °F 56% 29.92 in 10.0 mi North 15.0 mph 23.0 mph N/A   Clear
6:53 PM 37.4 °F 29.3 °F 24.8 °F 60% 29.93 in 10.0 mi North 12.7 mph 21.9 mph N/A   Clear
7:12 PM 37.4 °F 28.5 °F 23.0 °F 56% 29.94 in 10.0 mi North 15.0 mph - N/A   Clear
7:33 PM 37.4 °F 28.2 °F 23.0 °F 56% 29.93 in 10.0 mi North 16.1 mph 21.9 mph N/A   Clear
7:53 PM 37.4 °F 28.9 °F 23.0 °F 56% 29.92 in 10.0 mi North 13.8 mph 20.7 mph N/A   Clear
8:12 PM 37.4 °F 27.8 °F 23.0 °F 56% 29.92 in 10.0 mi North 17.3 mph 21.9 mph N/A   Clear
8:33 PM 35.6 °F 26.2 °F 23.0 °F 60% 29.92 in 10.0 mi North 15.0 mph 20.7 mph N/A   Clear
8:53 PM 35.6 °F 25.5 °F 23.0 °F 60% 29.93 in 10.0 mi North 17.3 mph 24.2 mph N/A   Clear
9:12 PM 35.6 °F 27.5 °F 23.0 °F 60% 29.94 in 10.0 mi North 11.5 mph - N/A   Clear
9:33 PM 35.6 °F 26.2 °F 21.2 °F 56% 29.96 in 10.0 mi North 15.0 mph 24.2 mph N/A   Clear
9:53 PM 35.6 °F 25.2 °F 21.2 °F 56% 29.96 in 10.0 mi North 18.4 mph 26.5 mph N/A   Clear
10:12 PM 35.6 °F 24.2 °F 21.2 °F 56% 29.97 in 10.0 mi North 21.9 mph 29.9 mph N/A   Clear
10:33 PM 33.8 °F 23.9 °F 21.2 °F 60% 29.98 in 10.0 mi North 15.0 mph 28.8 mph N/A   Clear
10:52 PM 33.8 °F 21.6 °F 21.2 °F 60% 29.98 in 10.0 mi North 23.0 mph 29.9 mph N/A   Clear
11:13 PM 33.8 °F 21.6 °F 21.2 °F 60% 30.00 in 10.0 mi North 23.0 mph 27.6 mph N/A   Clear
11:33 PM 32.0 °F 19.5 °F 21.2 °F 64% 30.00 in 10.0 mi North 21.9 mph 26.5 mph N/A   Clear
11:52 PM 32.0 °F 20.1 °F 21.2 °F 64% 30.00 in 10.0 mi North 19.6 mph 28.8 mph N/A   Clear